When you browse on this site, cookies collect data to enhance your experience and personalize the content and advertising you see.
Visit our Privacy Policy to learn more. By continuing to use the site, you agree to this use of cookies and data.
  • In Austria
  • List of Countries
  • For 7 days
  • Water Temperature
  • Weather Map
  • News
  • Weather Widgets
  • user-avatar
    Login

    Hourly Weather Tezontepec

    Today, 23 August, Friday

    Time Temperature Precipitation Wind Pressure Humidity
    00:00 +15°C° 0 mm 1 mps 577 mmHg 90%
    01:00 +14°C° 0 mm 1 mps 577 mmHg 91%
    02:00 +13°C° 0 mm 0 mps 576 mmHg 91%
    03:00 +13°C° 0 mm 0 mps 576 mmHg 91%
    04:00 +12°C° 0 mm 0 mps 576 mmHg 91%
    05:00 +12°C° 0 mm 0 mps 576 mmHg 91%
    06:00 +14°C° 0 mm 0 mps 577 mmHg 85%
    07:00 +16°C° 0 mm 0 mps 578 mmHg 78%
    08:00 +17°C° 0 mm 0 mps 579 mmHg 71%
    09:00 +21°C° 0.4 mm 1 mps 579 mmHg 66%
    10:00 +22°C° 0.4 mm 1 mps 580 mmHg 61%
    11:00 +23°C° 0.4 mm 2 mps 580 mmHg 56%
    12:00 +23°C° 1.8 mm 2 mps 579 mmHg 58%
    13:00 +22°C° 1.8 mm 3 mps 579 mmHg 60%
    14:00 +22°C° 1.8 mm 3 mps 579 mmHg 62%
    15:00 +21°C° 1.8 mm 3 mps 578 mmHg 68%
    16:00 +19°C° 1.8 mm 3 mps 577 mmHg 74%
    17:00 +18°C° 1.8 mm 2 mps 576 mmHg 80%
    18:00 +17°C° 2 mm 2 mps 576 mmHg 84%
    19:00 +16°C° 2 mm 3 mps 577 mmHg 87%
    20:00 +13°C° 2 mm 3 mps 577 mmHg 91%
    21:00 +13°C° 0.2 mm 3 mps 577 mmHg 90%
    22:00 +14°C° 0.2 mm 2 mps 576 mmHg 89%
    23:00 +14°C° 0.2 mm 2 mps 576 mmHg 88%

    Tomorrow, 24 August, Saturday

    Time Temperature Precipitation Wind Pressure Humidity
    00:00 +14°C° 0 mm 2 mps 576 mmHg 86%
    01:00 +14°C° 0 mm 1 mps 576 mmHg 85%
    02:00 +14°C° 0 mm 1 mps 576 mmHg 84%
    03:00 +14°C° 0 mm 1 mps 576 mmHg 83%
    04:00 +13°C° 0 mm 0 mps 576 mmHg 83%
    05:00 +14°C° 0 mm 0 mps 577 mmHg 82%
    06:00 +15°C° 0 mm 0 mps 577 mmHg 77%
    07:00 +18°C° 0 mm 1 mps 578 mmHg 72%
    08:00 +19°C° 0 mm 1 mps 579 mmHg 67%
    09:00 +21°C° 0.1 mm 1 mps 580 mmHg 61%
    10:00 +22°C° 0.1 mm 1 mps 580 mmHg 55%
    11:00 +24°C° 0.1 mm 1 mps 580 mmHg 49%
    12:00 +24°C° 0.5 mm 1 mps 580 mmHg 49%
    13:00 +24°C° 0.5 mm 2 mps 580 mmHg 49%
    14:00 +25°C° 0.5 mm 2 mps 579 mmHg 49%
    15:00 +24°C° 1 mm 2 mps 579 mmHg 55%
    16:00 +22°C° 1 mm 3 mps 578 mmHg 61%
    17:00 +21°C° 1 mm 3 mps 578 mmHg 67%
    18:00 +19°C° 1.6 mm 3 mps 578 mmHg 72%
    19:00 +18°C° 1.6 mm 2 mps 578 mmHg 77%
    20:00 +16°C° 1.6 mm 2 mps 577 mmHg 82%
    21:00 +16°C° 0.1 mm 1 mps 577 mmHg 82%
    22:00 +16°C° 0.1 mm 1 mps 577 mmHg 82%
    23:00 +16°C° 0.1 mm 1 mps 577 mmHg 83%

    Day after tomorrow, 25 August, Sunday

    Time Temperature Precipitation Wind Pressure Humidity
    00:00 +15°C° 0 mm 1 mps 577 mmHg 83%
    01:00 +15°C° 0 mm 1 mps 576 mmHg 84%
    02:00 +14°C° 0 mm 1 mps 575 mmHg 85%
    03:00 +14°C° 0 mm 1 mps 575 mmHg 85%
    04:00 +13°C° 0 mm 0 mps 575 mmHg 84%
    05:00 +12°C° 0 mm 0 mps 575 mmHg 84%
    06:00 +14°C° 0 mm 0 mps 577 mmHg 77%
    07:00 +16°C° 0 mm 0 mps 578 mmHg 70%
    08:00 +18°C° 0 mm 0 mps 579 mmHg 63%
    09:00 +22°C° 0.1 mm 1 mps 579 mmHg 58%
    10:00 +23°C° 0.1 mm 1 mps 580 mmHg 53%
    11:00 +25°C° 0.1 mm 1 mps 580 mmHg 49%
    12:00 +25°C° 1.1 mm 2 mps 579 mmHg 50%
    13:00 +25°C° 1.1 mm 3 mps 579 mmHg 52%
    14:00 +25°C° 1.1 mm 3 mps 578 mmHg 53%
    15:00 +22°C° 1.6 mm 4 mps 578 mmHg 60%
    16:00 +21°C° 1.6 mm 4 mps 577 mmHg 67%
    17:00 +19°C° 1.6 mm 4 mps 576 mmHg 73%
    18:00 +19°C° 0.2 mm 3 mps 576 mmHg 74%
    19:00 +18°C° 0.2 mm 2 mps 577 mmHg 75%
    20:00 +19°C° 0.2 mm 1 mps 577 mmHg 76%
    21:00 +18°C° 0 mm 1 mps 577 mmHg 76%
    22:00 +16°C° 0 mm 1 mps 577 mmHg 77%
    23:00 +16°C° 0 mm 1 mps 576 mmHg 78%

    26 August, Monday

    Time Temperature Precipitation Wind Pressure Humidity
    00:00 +16°C° 0 mm 1 mps 576 mmHg 78%
    01:00 +15°C° 0 mm 1 mps 576 mmHg 79%
    02:00 +15°C° 0 mm 1 mps 575 mmHg 80%
    03:00 +15°C° 0 mm 1 mps 575 mmHg 80%
    04:00 +14°C° 0 mm 0 mps 575 mmHg 81%
    05:00 +14°C° 0 mm 0 mps 575 mmHg 82%
    06:00 +15°C° 0 mm 0 mps 576 mmHg 76%
    07:00 +17°C° 0 mm 0 mps 577 mmHg 70%
    08:00 +18°C° 0 mm 0 mps 578 mmHg 64%
    09:00 +20°C° 0.2 mm 0 mps 578 mmHg 59%
    10:00 +21°C° 0.2 mm 0 mps 579 mmHg 54%
    11:00 +23°C° 0.2 mm 0 mps 579 mmHg 48%
    12:00 +25°C° 0.3 mm 1 mps 579 mmHg 48%
    13:00 +25°C° 0.3 mm 2 mps 578 mmHg 47%
    14:00 +25°C° 0.3 mm 2 mps 578 mmHg 47%
    15:00 +24°C° 0.4 mm 3 mps 577 mmHg 53%
    16:00 +22°C° 0.4 mm 3 mps 577 mmHg 60%
    17:00 +20°C° 0.4 mm 3 mps 576 mmHg 67%
    18:00 +19°C° 0.6 mm 2 mps 576 mmHg 72%
    19:00 +17°C° 0.6 mm 2 mps 576 mmHg 78%
    20:00 +15°C° 0.6 mm 1 mps 576 mmHg 83%
    21:00 +15°C° 0 mm 1 mps 576 mmHg 83%
    22:00 +14°C° 0 mm 1 mps 575 mmHg 84%
    23:00 +13°C° 0 mm 0 mps 575 mmHg 84%

    27 August, Tuesday

    Time Temperature Precipitation Wind Pressure Humidity
    00:00 +13°C° 0 mm 0 mps 575 mmHg 84%
    01:00 +13°C° 0 mm 0 mps 575 mmHg 83%
    02:00 +12°C° 0 mm 0 mps 575 mmHg 83%
    03:00 +12°C° 0 mm 0 mps 575 mmHg 83%
    04:00 +12°C° 0 mm 0 mps 575 mmHg 83%
    05:00 +12°C° 0 mm 0 mps 575 mmHg 83%
    06:00 +14°C° 0 mm 0 mps 576 mmHg 77%
    07:00 +15°C° 0 mm 0 mps 577 mmHg 70%
    08:00 +17°C° 0 mm 0 mps 578 mmHg 64%
    09:00 +19°C° 0.1 mm 0 mps 578 mmHg 59%
    10:00 +22°C° 0.1 mm 1 mps 579 mmHg 53%
    11:00 +24°C° 0.1 mm 1 mps 579 mmHg 48%
    12:00 +24°C° 0.5 mm 2 mps 579 mmHg 50%
    13:00 +24°C° 0.5 mm 3 mps 578 mmHg 51%
    14:00 +23°C° 0.5 mm 4 mps 578 mmHg 53%
    15:00 +22°C° 1.3 mm 4 mps 577 mmHg 59%
    16:00 +21°C° 1.3 mm 3 mps 577 mmHg 64%
    17:00 +20°C° 1.3 mm 3 mps 577 mmHg 70%
    18:00 +19°C° 0.3 mm 3 mps 577 mmHg 72%
    19:00 +18°C° 0.3 mm 3 mps 577 mmHg 75%
    20:00 +17°C° 0.3 mm 2 mps 577 mmHg 77%
    21:00 +16°C° 0.2 mm 2 mps 577 mmHg 78%
    22:00 +16°C° 0.2 mm 1 mps 578 mmHg 79%
    23:00 +15°C° 0.2 mm 1 mps 578 mmHg 79%

    28 August, Wednesday

    Time Temperature Precipitation Wind Pressure Humidity
    00:00 +15°C° 0 mm 1 mps 577 mmHg 80%
    01:00 +15°C° 0 mm 1 mps 577 mmHg 81%
    02:00 +14°C° 0 mm 1 mps 576 mmHg 82%
    03:00 +14°C° 0 mm 1 mps 577 mmHg 82%
    04:00 +14°C° 0 mm 1 mps 577 mmHg 83%
    05:00 +14°C° 0 mm 1 mps 577 mmHg 83%
    06:00 +15°C° 0 mm 1 mps 578 mmHg 77%
    07:00 +16°C° 0 mm 0 mps 579 mmHg 72%
    08:00 +17°C° 0 mm 0 mps 579 mmHg 66%
    09:00 +21°C° 0 mm 1 mps 580 mmHg 59%
    10:00 +23°C° 0 mm 1 mps 580 mmHg 51%
    11:00 +24°C° 0 mm 2 mps 581 mmHg 44%
    12:00 +24°C° 0.4 mm 3 mps 580 mmHg 48%
    13:00 +24°C° 0.4 mm 3 mps 579 mmHg 51%
    14:00 +23°C° 0.4 mm 4 mps 579 mmHg 55%
    15:00 +21°C° 1.2 mm 4 mps 578 mmHg 61%
    16:00 +20°C° 1.2 mm 4 mps 578 mmHg 67%
    17:00 +19°C° 1.2 mm 4 mps 578 mmHg 73%
    18:00 +18°C° 0.3 mm 4 mps 577 mmHg 77%
    19:00 +16°C° 0.3 mm 3 mps 577 mmHg 81%
    20:00 +14°C° 0.3 mm 3 mps 577 mmHg 85%
    21:00 +15°C° 0.1 mm 2 mps 577 mmHg 86%
    22:00 +14°C° 0.1 mm 2 mps 577 mmHg 88%
    23:00 +14°C° 0.1 mm 1 mps 577 mmHg 89%
    Show more